Showing default

COSMOS 1629, 15574

Orbit data source: Space-Track

COSMOS 1629, 15574 is a payload satellite owned by PVO (CIS) in GEO that was launched on Thu, 21 Feb 1985 UTC via a PROTON-K/DM launch vehicle from the Tyuratam Missile And Space Complex (TTMTR). Payload-class satellites include a variety of spacecraft equipped with specific instruments for various scientific and technological missions. These include communications satellites like Starlink; space stations such as the ISS; scientific satellites like the Hubble; Earth observation satellites from companies like Planet Labs, Umbra, and HawkEye 360; GPS; miniature CubeSats for education and research; and military/defense satellites.

Loading next visibility...
Identifier
15574, 1985-016A
Orbit
GEO
Country
Flag of CISCIS
Related business
Manufacturer
NPOL/KOMET
Mission
Spacecraft
Bus & Motor
OKO, Unknown motor
Mass
~1,250 kg wet, ~1,150 kg dry
Launch date (UTC)
1985-02-21 (42 years ago)
Launch vehicle
PROTON-K/DM
Launch site
Tyuratam Missile And Space Complex (TTMTR)
Object type
Payload
Rocket body
Debris
Shape & HBR
CYL + 2 PAN, 1.1 m
Radar Cross Section
Large (>1 m²)

Expand to show TLE details & history
Last TLE update: 1 day ago

TLE from 1 day ago
0 COSMOS 1629
1 15574U 85016A   26264.38548770  .00000112  00000-0  00000-0 0  9998
2 15574   8.9600 313.9180 0007813 273.5052 121.9575  1.00350853151423
Epoch: 2026-09-21T09:15Z
TLE epoch observation values (Epoch: 2026-09-21T09:15:06.137Z)
Latitude
5.1915°
Longitude
-149.91334°
Altitude
35,780.976 km
Speed
3.074 km/s
True Right ascension
23h 16m 30s
True Declination
5° 11' 11"
Sunlit
Object was in daylight at epoch
Visualization orbit readout
Latitude
Unknown
Longitude
Unknown
Altitude
Unknown
Speed
Unknown
Apparent Right ascension
Unknown
Apparent Declination
Unknown
Sunlit
N/A
Visualization observer readout
Local Sidereal Time
03:43:31
Azimuth
Unknown
Elevation
Unknown
Doppler factor
Unknown
Orbital elements
Apogee altitude
35,798.404 km
Perigee altitude
35,732.55 km
Semi-major axis
42,143.614 km
Eccentricity
0.00078
Inclination
8.96°
RAAN
313.918°
Arg. of periapsis
273.5052°
True anomaly
122.03342°
Mean anomaly
121.9575°
Eccentric anomaly
121.99546°
Mean motion
0.25087 °/min
Orbital period
1,435.02 mins
BSTAR
0
Loading maneuver chart data...
Computing Atmospheric mass density...
Loading historical data...
Loading historical data...
Loading historical data...
Loading historical data...
Loading historical data...
Loading historical data...
Loading historical data...

Documentation

Showing up to 5 results
|